Regional Weather Roundup
Issued by NWS Burlington, VT

Home | Current Version | Previous Version | Text Only | Print | Product List | Glossary On
Versions: 1 2 3 4 5 6 7 8 9 10 11 12 13 14 15 16 17 18 19 20 21 22 23 24 25 26 27 28 29 30 31 32 33 34 35 36 37 38 39 40 41 42 43 44 45 46 47 48 49 50
000
ASUS41 KBTV 220430
RWRBTV
VERMONT REGIONAL WEATHER ROUNDUP
NATIONAL WEATHER SERVICE BURLINGTON VT
1200 AM EDT SUN OCT 22 2017

NOTE: "FAIR" INDICATES FEW OR NO CLOUDS BELOW 12,000 FEET WITH NO
SIGNIFICANT WEATHER AND/OR OBSTRUCTIONS TO VISIBILITY.

* THESE REPORTS ARE NOT UNDER NWS QUALITY CONTROL AND/OR DO NOT
  REPORT WEATHER SUCH AS PRECIPITATION AND FOG.

VTZ001>019-220500-
_____VERMONT_____


CITY           SKY/WX    TMP DP  RH WIND       PRES   REMARKS
BURLINGTON     MOCLDY    53  47  79 CALM      30.30S
MORRISVILLE    CLOUDY    44  43  96 CALM      30.33S
ST. JOHNSBURY*   N/A     48  47  96 MISG      30.32R
LYNDONVILLE*   FAIR      50  45  82 CALM      30.35S
MIDDLEBURY*    FAIR      51  45  80 CALM      30.31S
RUTLAND*       CLEAR     50  43  77 SE10      30.34S
SPRINGFIELD    CLOUDY    46  45  96 CALM      30.35S
HIGHGATE*      FAIR      53  48  83 CALM      30.29S
NEWPORT*       FAIR      52  46  82 SW5       30.32S
BENNINGTON     CLEAR     46  42  86 CALM      30.34S
SUTTON*          N/A      0 N/A N/A MISG        N/A
ISLAND POND*     N/A     43 N/A N/A CALM        N/A
GALLUP MILLS*    N/A     45 N/A N/A MISG        N/A
UNION VILLAGE*   N/A     46 N/A N/A MISG        N/A
MT. MANSFIELD*   N/A     55 N/A N/A W17         N/A

_____LAKE CHAMPLAIN_____


CITY           SKY/WX    TMP DP  RH WIND       PRES   REMARKS
BURTON ISLAND*   N/A     61  55  82 S5          N/A
COLCHESTER RF*   N/A     59  55  88 S9          N/A
DIAMOND ISL*     N/A     57  52  82 SW6         N/A

$$

NYZ007-026>031-035-052-083-087-220500-
_____NORTHERN NEW YORK_____


CITY           SKY/WX    TMP DP  RH WIND       PRES   REMARKS
PLATTSBURGH    PTCLDY    49  46  90 CALM      30.29S
SARANAC LAKE   CLOUDY    38  38 100 CALM      30.33R
MASSENA        CLOUDY    50  47  89 CALM      30.29S
OGDENSBURG*    FAIR      46  44  94 CALM      30.27F
POTSDAM*       CLEAR     48  48 100 CALM      30.28S
STARK FALLS*     N/A     54 N/A N/A SE10        N/A
WATERTOWN      CLOUDY    43  42  97 NE3       30.27R
FT DRUM        CLOUDY    54  44  70 SE10      30.27S
ALBANY         MOCLDY    48  45  89 CALM      30.34R
GLENS FALLS    CLEAR     41  40  96 CALM      30.33R FOG

$$
NHZ002-005-011-220500-
_____NEW HAMPSHIRE_____


CITY           SKY/WX    TMP DP  RH WIND       PRES   REMARKS
LEBANON        CLOUDY    46  44  93 CALM      30.34R
KEENE          CLOUDY    45  45 100 CALM      30.35S
MT WASHINGTON  MOCLDY    45  39  81 NW22        N/A
PLYMOUTH       FAIR      44  43  96 CALM      30.34S FOG
WHITEFIELD     PTCLDY    43  41  93 CALM      30.34R

$$

_____REGIONAL QUEBEC LOCATIONS_____


CITY           SKY/WX    TMP DP  RH WIND       PRES   REMARKS
MONTREAL       MOCLDY    55  54  94 CALM      30.27S
QUEBEC CITY    MOCLDY    48  37  66 NE9       30.33R
SHERBROOKE     CLOUDY    48  45  87 E2        30.31R

_____REGIONAL ONTARIO LOCATIONS_____


CITY           SKY/WX    TMP DP  RH WIND       PRES   REMARKS
OTTAWA         MOCLDY    55  46  71 S3        30.26S

______KEY______
VSB  - VISIBILITY IN MILES
WCI  - WIND CHILL INDEX
HX   - HEAT INDEX
$$
NNNN



USA.gov is the U.S. government's official web portal to all federal, state and local government web resources and services.